Date String (YYYY-MM-DD hh:mm:ss) UTC,Instrument flags,Ambient pressure (hPa),Sample flow (lpm),Bypass flow (lpm),Sample temperature (°C),Ambient temperature (°C),ASC tube jacket temperature (°C),LED temperature (°C),Box temperature (°C),Sample RH (%),Span deviation,Mass concentration (μg/m³),Mass concentration (μg/m³),Mass concentration (μg/m³)
DateTimeUTC,F1_M11,P_M11,Q1_M11,Q2_M11,T1_M11,T2_M11,T3_M11,T4_M11,T5_M11,U1_M11,ZSPAN_M11,X0_M11,X2_M11,X1_M11
2022-07-26 10:00:00,,0826.1,5.01,0.00,29.7,28.4,00.0,38.4,31.5,18.9,0000.0,0011.37,0006.38,0005.82
2022-07-26 10:01:00,,0825.9,5.01,0.00,29.7,28.5,00.0,38.4,31.6,18.0,0000.0,0011.30,0006.32,0005.78
2022-07-26 10:02:00,,0826.1,5.00,0.00,29.7,28.5,00.0,38.4,31.6,17.5,0000.0,0011.16,0006.29,0005.76
2022-07-26 10:03:00,,0826.0,4.99,0.00,29.7,28.6,00.0,38.5,31.7,17.6,0000.0,0012.02,0006.26,0005.74
2022-07-26 10:04:00,,0826.2,5.01,0.00,29.8,28.6,00.0,38.5,31.7,17.8,0000.0,0012.59,0006.21,0005.69
2022-07-26 10:05:00,,0826.3,5.01,0.00,29.8,28.7,00.0,38.5,31.7,18.0,0000.0,0012.62,0006.17,0005.68
2022-07-26 10:06:00,,0826.0,4.99,0.00,29.8,28.7,00.0,38.5,31.8,18.1,0000.0,0012.07,0006.13,0005.67
2022-07-26 10:07:00,,0826.0,5.01,0.00,29.8,28.8,00.0,38.5,31.8,18.1,0000.0,0011.77,0006.10,0005.67
2022-07-26 10:08:00,,0825.9,4.99,0.00,29.9,28.8,00.0,38.5,31.8,18.1,0000.0,0011.84,0006.11,0005.67
2022-07-26 10:09:00,,0826.1,5.01,0.00,29.9,28.9,00.0,38.6,31.8,18.1,0000.0,0011.96,0006.15,0005.69
2022-07-26 10:10:00,,0825.7,4.99,0.00,29.9,28.9,00.0,38.6,31.8,18.2,0000.0,0012.03,0006.21,0005.73
2022-07-26 10:11:00,,0825.8,5.00,0.00,29.9,28.9,00.0,38.6,31.9,18.1,0000.0,0011.54,0006.26,0005.76
2022-07-26 10:12:00,,0825.7,5.01,0.00,30.0,29.0,00.0,38.6,31.9,18.0,0000.0,0012.01,0006.30,0005.79
2022-07-26 10:13:00,,0825.7,4.99,0.00,30.0,29.0,00.0,38.6,31.9,18.0,0000.0,0011.83,0006.31,0005.81
2022-07-26 10:14:00,,0825.8,5.01,0.00,30.0,29.0,00.0,38.7,32.0,18.0,0000.0,0010.77,0006.35,0005.85
2022-07-26 10:15:00,,0826.0,5.00,0.00,30.0,28.7,00.0,38.7,31.9,17.9,0000.0,0010.29,0006.41,0005.88
2022-07-26 10:16:00,,0825.8,5.00,0.00,30.0,27.9,00.0,38.6,31.8,17.8,0000.0,0010.11,0006.42,0005.89
2022-07-26 10:17:00,,0826.2,5.00,0.00,29.9,27.5,00.0,38.6,31.7,17.9,0000.0,0010.24,0006.45,0005.90
2022-07-26 10:18:00,,0826.0,5.00,0.00,29.9,27.5,00.0,38.6,31.5,18.2,0000.0,0010.43,0006.47,0005.91
2022-07-26 10:19:00,,0826.0,5.00,0.00,29.8,27.6,00.0,38.6,31.5,18.4,0000.0,0010.50,0006.47,0005.93
2022-07-26 10:20:00,,0826.0,4.99,0.00,29.8,27.7,00.0,38.5,31.5,18.4,0000.0,0010.94,0006.48,0005.94
2022-07-26 10:21:00,,0826.0,5.01,0.00,29.8,27.8,00.0,38.5,31.5,18.1,0000.0,0011.23,0006.48,0005.92
2022-07-26 10:22:00,,0826.3,5.00,0.00,29.8,28.0,00.0,38.5,31.6,17.9,0000.0,0011.20,0006.50,0005.89
2022-07-26 10:23:00,,0825.9,5.01,0.00,29.8,28.1,00.0,38.5,31.6,17.3,0000.0,0010.93,0006.51,0005.87
2022-07-26 10:24:00,,0826.2,5.01,0.00,29.8,28.2,00.0,38.6,31.6,17.2,0000.0,0011.09,0006.51,0005.83
2022-07-26 10:25:00,,0826.1,5.01,0.00,29.8,28.3,00.0,38.5,31.6,17.4,0000.0,0011.03,0006.45,0005.79
2022-07-26 10:26:00,,0826.0,5.00,0.00,29.8,28.4,00.0,38.5,31.7,17.2,0000.0,0011.09,0006.40,0005.76
2022-07-26 10:27:00,,0826.0,4.99,0.00,29.8,28.5,00.0,38.6,31.7,17.4,0000.0,0011.47,0006.41,0005.74
2022-07-26 10:28:00,,0825.8,5.01,0.00,29.8,28.6,00.0,38.6,31.7,17.5,0000.0,0011.36,0006.39,0005.72
2022-07-26 10:29:00,,0825.8,5.00,0.00,29.8,28.6,00.0,38.6,31.8,17.0,0000.0,0011.22,0006.38,0005.69
2022-07-26 10:30:00,,0826.0,5.00,0.00,29.9,28.7,00.0,38.6,31.7,17.0,0000.0,0011.57,0006.37,0005.65
2022-07-26 10:31:00,,0825.7,4.99,0.00,29.9,28.7,00.0,38.6,31.8,17.4,0000.0,0012.46,0006.39,0005.62
2022-07-26 10:32:00,,0825.7,5.01,0.00,29.9,28.8,00.0,38.6,31.8,17.0,0000.0,0012.26,0006.38,0005.60
2022-07-26 10:33:00,,0825.7,4.99,0.00,29.9,28.8,00.0,38.6,31.8,17.3,0000.0,0012.04,0006.33,0005.59
2022-07-26 10:34:00,,0825.7,5.01,0.00,29.9,28.8,00.0,38.6,31.9,16.9,0000.0,0011.91,0006.30,0005.60
2022-07-26 10:35:00,,0825.7,4.99,0.00,30.0,28.9,00.0,38.7,31.9,17.0,0000.0,0011.70,0006.28,0005.61
2022-07-26 10:36:00,,0825.7,5.01,0.00,30.0,28.9,00.0,38.7,31.9,16.7,0000.0,0011.75,0006.31,0005.62
2022-07-26 10:37:00,,0825.7,5.00,0.00,30.0,28.9,00.0,38.7,31.9,16.9,0000.0,0011.64,0006.31,0005.62
2022-07-26 10:38:00,,0825.7,5.00,0.00,30.0,28.9,00.0,38.7,31.9,17.1,0000.0,0011.09,0006.26,0005.61
2022-07-26 10:39:00,,0825.7,5.01,0.00,30.0,29.0,00.0,38.7,31.9,17.1,0000.0,0011.06,0006.24,0005.61
2022-07-26 10:40:00,,0825.9,5.00,0.00,30.0,29.0,00.0,38.7,32.0,17.0,0000.0,0010.97,0006.21,0005.62
2022-07-26 10:41:00,,0826.3,5.01,0.00,30.1,28.8,00.0,38.7,32.0,17.0,0000.0,0010.36,0006.18,0005.62
2022-07-26 10:42:00,,0826.0,4.99,0.00,30.0,28.0,00.0,38.7,31.8,17.4,0000.0,0009.11,0006.16,0005.63
2022-07-26 10:43:00,,0825.9,5.01,0.00,30.0,27.6,00.0,38.6,31.7,17.7,0000.0,0009.04,0006.14,0005.63
2022-07-26 10:44:00,,0825.9,4.99,0.00,29.9,27.5,00.0,38.6,31.5,18.1,0000.0,0008.98,0006.13,0005.63
2022-07-26 10:45:00,,0826.0,5.00,0.00,29.8,27.6,00.0,38.6,31.5,18.1,0000.0,0008.95,0006.14,0005.64
2022-07-26 10:46:00,,0825.9,5.00,0.00,29.8,27.7,00.0,38.6,31.5,18.0,0000.0,0009.05,0006.17,0005.65
2022-07-26 10:47:00,,0825.9,5.00,0.00,29.8,27.8,00.0,38.6,31.5,18.3,0000.0,0009.21,0006.22,0005.66
2022-07-26 10:48:00,,0826.0,5.00,0.00,29.8,27.9,00.0,38.6,31.5,20.6,0000.0,0009.34,0006.24,0005.68
2022-07-26 10:49:00,,0826.0,5.01,0.00,29.8,28.1,00.0,38.6,31.6,19.8,0000.0,0009.44,0006.29,0005.68
2022-07-26 10:50:00,,0826.0,5.01,0.00,29.8,28.2,00.0,38.6,31.6,19.0,0000.0,0009.63,0006.31,0005.70
2022-07-26 10:51:00,,0825.9,4.99,0.00,29.8,28.3,00.0,38.6,31.6,18.9,0000.0,0009.82,0006.35,0005.72
2022-07-26 10:52:00,,0825.9,5.00,0.00,29.8,28.4,00.0,38.6,31.6,18.6,0000.0,0009.86,0006.37,0005.74
2022-07-26 10:53:00,,0825.8,4.99,0.00,29.8,28.5,00.0,38.6,31.7,18.9,0000.0,0009.82,0006.35,0005.75
2022-07-26 10:54:00,,0825.8,5.01,0.00,29.8,28.5,00.0,38.6,31.7,19.6,0000.0,0009.88,0006.35,0005.75
2022-07-26 10:55:00,,0825.8,4.99,0.00,29.8,28.6,00.0,38.6,31.7,19.3,0000.0,0009.95,0006.35,0005.75
2022-07-26 10:56:00,,0825.8,5.01,0.00,29.9,28.6,00.0,38.6,31.8,18.8,0000.0,0009.93,0006.35,0005.74
2022-07-26 10:57:00,,0825.8,4.99,0.00,29.9,28.7,00.0,38.6,31.7,18.7,0000.0,0009.95,0006.36,0005.75
2022-07-26 10:58:00,,0825.9,5.02,0.00,29.9,28.7,00.0,38.6,31.7,18.7,0000.0,0009.91,0006.35,0005.76
2022-07-26 10:59:00,,0825.8,5.00,0.00,29.9,28.8,00.0,38.6,31.8,19.4,0000.0,0009.89,0006.40,0005.80
